Location: El Centro
(32.7920°N, 115.5620°W)
Time: 03:28:12
(UTC-07:00)

Hamsat - Visible Passes

Search period start: 05 August 2015 00:00
Search period end: 15 August 2015 00:00
Orbit: 590 x 621 km, 97.6° (Epoch: 04 August)

Date Brightness Start Highest point End Pass type
(mag) Time Alt. Az. Time Alt. Az. Time Alt. Az.
05 Aug ? 04:43:03 10° ENE 04:43:56 11° E 04:45:05 10° ESE visible
06 Aug ? 04:54:24 10° NE 04:56:53 16° E 04:59:34 10° SE visible
07 Aug ? 05:06:32 10° NE 05:09:50 22° E 05:13:11 10° SSE visible
08 Aug ? 05:18:56 10° NNE 05:22:43 32° E 05:26:30 10° SSE visible
09 Aug ? 05:31:30 10° NNE 05:35:35 46° E 05:39:37 10° S visible
13 Aug ? 04:48:41 10° ENE 04:50:37 13° E 04:52:47 10° ESE visible
14 Aug ? 05:00:35 10° NE 05:03:33 19° E 05:06:37 10° SE visible
